Raton, NM

10:09 PM MDT on June 28, 2017 (GMT -0600)
Raton Municipal-Crews

Weather History for KRTN - May, 2013

Change the Weather History Date:

Wednesday, May 15, 2013

  Actual Average (KTAD) Record (KTAD)
Temperature  
Mean Temperature 64 °F -  
Max Temperature 82 °F 76 °F 91 °F (1978)
Min Temperature 48 °F 43 °F 29 °F (1967)
Degree Days  
Heating Degree Days 1    
Growing Degree Days 14 (Base 50)    
Moisture  
Dew Point 34 °F    
Average Humidity 36    
Maximum Humidity 56    
Minimum Humidity 15    
Precipitation  
Precipitation 0.00 in - - ()
Sea Level Pressure  
Sea Level Pressure 29.79 in    
Wind  
Wind Speed 8 mph (North)    
Max Wind Speed 24 mph    
Max Gust Speed 37 mph    
Visibility 10 miles    
Events      
Averages and records for this station are not official NWS values.
T = Trace of Precipitation, MM = Missing Value Source: NWS Daily Summary

Daily Weather History Graph

Daily Weather History Graph

Search for Another Location

Airport or City:

Trip Planner

Search our weather history database for the weather conditions in past years. The results will help you decide how hot, cold, wet, or windy it might be!

Date:

Astronomy

May. 15, 2013 Rise Set
Actual Time 5:50 AM MDT 7:58 PM MDT
Civil Twilight 5:21 AM MDT 8:27 PM MDT
Nautical Twilight 4:46 AM MDT 9:03 PM MDT
Astronomical Twilight 4:07 AM MDT 9:41 PM MDT
Moon 10:26 AM MDT (5/15) No Moon Set
Length of Visible Light 15h 06m
Length of Day
14h 08m
Waxing Crescent, 27% of the Moon is Illuminated
May 15
Waxing Crescent
May 17
First Quarter
May 24
Full
May 31
Last Quarter
Jun 8
New

Hourly Weather History & Observations

Time (MDT) Temp. Dew Point Humidity Pressure Visibility Wind Dir Wind Speed Gust Speed Precip Events Conditions
12:53 AM 54.0 °F 34.0 °F 47% 29.80 in 10.0 mi North 3.5 mph - N/A   Clear
1:53 AM 51.1 °F 34.0 °F 52% 29.79 in 10.0 mi ENE 5.8 mph - N/A   Clear
2:53 AM 53.1 °F 32.0 °F 45% 29.77 in 10.0 mi NE 5.8 mph - N/A   Clear
3:53 AM 50.0 °F 34.0 °F 54% 29.78 in 10.0 mi ENE 3.5 mph - N/A   Clear
4:53 AM 48.9 °F 34.0 °F 56% 29.81 in 10.0 mi ENE 5.8 mph - N/A   Clear
5:53 AM 50.0 °F 34.0 °F 54% 29.80 in 10.0 mi NNE 6.9 mph - N/A   Clear
6:53 AM 52.0 °F 34.0 °F 50% 29.82 in 10.0 mi ENE 5.8 mph - N/A   Clear
7:53 AM 60.1 °F 35.1 °F 39% 29.80 in 10.0 mi NE 4.6 mph - N/A   Clear
8:53 AM 66.9 °F 36.0 °F 32% 29.78 in 10.0 mi Calm Calm - N/A   Clear
9:53 AM 75.0 °F 32.0 °F 21% 29.76 in 10.0 mi NE 5.8 mph - N/A   Clear
10:53 AM 75.9 °F 30.0 °F 19% 29.74 in 10.0 mi Calm Calm - N/A   Clear
11:53 AM 80.1 °F 28.9 °F 15% 29.71 in 10.0 mi ESE 11.5 mph 17.3 mph N/A   Clear
12:53 PM 73.9 °F 26.1 °F 17% 29.75 in 10.0 mi WNW 12.7 mph 20.7 mph N/A   Overcast
1:53 PM 75.0 °F 30.9 °F 20% 29.75 in 10.0 mi South 11.5 mph - 0.00 in   Scattered Clouds
2:53 PM 80.1 °F 28.9 °F 15% 29.70 in 10.0 mi SSE 12.7 mph 16.1 mph N/A   Clear
3:53 PM 71.1 °F 35.1 °F 27% 29.75 in 10.0 mi NNW 19.6 mph 27.6 mph N/A   Overcast
4:02 PM 71.6 °F 37.4 °F 29% 29.97 in 10.0 mi NNW 21.9 mph 27.6 mph N/A   Overcast
4:53 PM 71.1 °F 37.0 °F 29% 29.75 in 10.0 mi NNW 12.7 mph 20.7 mph N/A   Mostly Cloudy
5:53 PM 71.1 °F 33.1 °F 25% 29.76 in 10.0 mi NNW 10.4 mph - N/A   Mostly Cloudy
6:25 PM 69.8 °F 32.0 °F 25% 29.99 in 10.0 mi NW 24.2 mph 36.8 mph N/A   Overcast
6:53 PM 68.0 °F 37.0 °F 32% 29.80 in 10.0 mi NW 17.3 mph 25.3 mph N/A   Mostly Cloudy
7:53 PM 64.9 °F 37.9 °F 37% 29.80 in 10.0 mi NW 23.0 mph 32.2 mph N/A   Overcast
8:53 PM 62.1 °F 39.0 °F 43% 29.77 in 10.0 mi North 9.2 mph - 0.00 in   Scattered Clouds
9:53 PM 57.0 °F 37.0 °F 47% 29.78 in 10.0 mi North 5.8 mph - N/A   Clear
10:53 PM 54.0 °F 37.0 °F 53% 29.80 in 10.0 mi WNW 4.6 mph - N/A   Clear
11:53 PM 57.9 °F 37.9 °F 47% 29.76 in 10.0 mi North 9.2 mph - N/A   Clear